Regional Weather Roundup
Issued by NWS

Home | Current Version | Previous Version | Text Only | Print | Product List | Glossary Off
Versions: 1 2 3 4 5 6 7 8 9 10 11 12 13 14 15 16 17 18 19 20 21 22 23 24 25 26 27 28 29 30 31 32 33 34 35 36 37 38 39 40 41 42 43 44 45 46 47 48 49 50

127
ASUS43 KLSX 271007
RWRMO

WEATHER SUMMARY FOR MISSOURI
NATIONAL WEATHER SERVICE SPRINGFIELD MO
500 AM CDT TUE SEP 27 2016

NOTE: "FAIR" INDICATES FEW OR NO CLOUDS BELOW 12,000 FEET WITH NO
       SIGNIFICANT WEATHER AND/OR OBSTRUCTIONS TO VISIBILITY.
       CURRENT SKY AND/OR WEATHER CONDITIONS ARE NOT AVAILABLE FOR
       CHILLICOTHE AND FARMINGTON.

MOZ001>031-035>038-043-044-053-054-271100-
...NORTHERN AND WESTERN MISSOURI...

CITY           SKY/WX    TMP DP  RH WIND       PRES   REMARKS
KANSAS CTY INT CLEAR     52  45  77 SW7       30.06S
KANSAS C DTWN  CLEAR     58  47  66 SW7       30.06S
LEE`S SUMMIT   CLEAR     56  47  71 SW8       30.07S
ST JOSEPH      CLEAR     51  48  89 S5        30.05F
CHILLICOTHE      N/A     50  47  89 CALM      30.04S
KIRKSVILLE     CLEAR     51  45  79 W6        30.01F

$$
MOZ066>068-077>081-088>096-101>105-271100-
...SOUTHWEST MISSOURI...

CITY           SKY/WX    TMP DP  RH WIND       PRES   REMARKS
SPRINGFIELD    CLEAR     50  43  77 CALM      30.10F
JOPLIN         CLEAR     49  45  86 CALM      30.12S FOG
BRANSON        CLEAR     50  46  87 SW6       30.13S

$$
MOZ032>034-039>042-045>050-055>058-069>072-271100-
...CENTRAL MISSOURI...

CITY           SKY/WX    TMP DP  RH WIND       PRES   REMARKS
COLUMBIA       CLEAR     55  44  66 SW8       30.04F
JEFFERSON CITY CLEAR     52  47  83 CALM      30.05F
ROLLA          CLEAR     49  45  86 SW7       30.06F
SEDALIA        CLEAR     55  45  68 SW10      30.07S
WHITEMAN AFB   CLEAR     55  45  68 SW7       30.05F
OSAGE BEACH    CLEAR     48  46  93 CALM      30.09F

$$
MOZ051-052-059>065-271100-
...EAST CENTRAL MISSOURI...

CITY           SKY/WX    TMP DP  RH WIND       PRES   REMARKS
ST LOUIS INTL  CLEAR     57  44  62 W6        30.03F
SPIRIT OF STL  CLEAR     50  47  89 W5        30.03F
ST CHARLES     CLEAR     51  47  86 S5        30.03S

$$
MOZ072>076-082>087-097>100-106>115-271100-
...SOUTH CENTRAL AND SOUTHEAST MISSOURI...

CITY           SKY/WX    TMP DP  RH WIND       PRES   REMARKS
CAPE GIRARDEAU FOG       46  44  93 CALM      30.06S VSB 1/2
FARMINGTON     CLEAR     46  45  96 CALM      30.08S
POPLAR BLUFF   CLEAR     50  48  93 CALM      30.07F
WEST PLAINS    CLEAR     49  42  77 CALM      30.11F

$$



USA.gov is the U.S. government's official web portal to all federal, state and local government web resources and services.